Location: Hilton Head Island
(32.2163°N, 80.7526°W)
Time: 12:27:16
(UTC-05:00)

Vanguard 2 - Pass Details

Date: 19 February 2026
Orbit: 553 x 2896 km, 32.9° (Epoch: 6 March)

Event Time Altitude Azimuth Distance (km) Brightness Sun altitude
Exits shadow 05:42:21 21° 242° (WSW) 2,022 9.2 -17.4°
Maximum altitude 05:46:31 66° 165° (SSE) 857 7.8 -16.5°
Drops below altitude 10° 05:50:58 10° 83° (E) 2,014 11.0 -15.6°
Sets 05:52:58 0° 80° (E) 2,815 12.1 -15.1°
